Theta_e
311 310 310 309 308 308 307 306 305 304 304 304 304 304 303 302 301 300 299 299 298 298 298 297 297 297 297 297 299 300 302 304 305 304 306 305 305 304 304 304 304 303 304
309 309 308 307 305 304 304 304 304 304 303 302 301 300 299 299 298 297 297 296 296 296 295 295 295 295 296 296 297 298 299 302 303 301 300 301 303 303 302 302 303 303 303
306 305 304 304 304 304 303 303 302 301 300 299 298 297 296 296 296 296 295 295 295 295 294 294 294 294 294 295 295 296 297 299 298 300 301 301 302 300 300 300 300 300 301
303 303 303 303 303 302 301 300 300 299 298 297 296 295 295 295 294 294 294 294 294 294 294 293 293 293 293 294 294 295 296 297 297 296 297 297 298 298 298 298 298 299 299
303 303 302 302 300 300 299 299 297 296 295 295 294 294 294 294 293 293 293 293 293 292 292 292 292 292 292 293 293 294 295 295 295 294 295 295 295 296 296 297 297 297 296
302 301 300 299 299 298 297 296 295 294 294 294 293 293 293 293 293 292 292 292 291 291 291 291 291 290 291 291 293 293 294 294 294 292 293 294 294 294 294 294 294 294 294
300 299 299 298 297 296 295 294 293 293 293 293 293 293 292 292 292 292 291 291 291 290 290 290 290 290 290 291 292 293 293 292 291 291 292 293 292 293 292 291 292 293 291
298 298 298 297 295 294 293 293 292 292 292 292 292 292 292 291 291 290 290 290 289 289 289 289 290 290 291 292 292 292 291 289 289 290 290 291 291 291 291 290 291 290 288
297 297 296 294 293 292 292 292 292 292 292 292 291 291 291 290 290 289 289 289 289 289 289 289 290 290 290 289 289 289 289 288 288 288 288 289 289 289 289 289 289 288 286
297 295 294 292 292 291 291 291 291 291 291 291 290 290 289 289 289 289 289 288 289 289 289 289 290 289 288 288 288 287 287 287 287 287 287 287 287 287 287 287 287 287 287
295 293 292 291 291 291 291 291 290 290 290 289 289 289 289 288 288 288 288 288 288 288 289 290 288 288 288 287 286 287 287 287 287 286 286 286 286 287 287 287 288 288 288
293 291 291 290 290 290 290 290 289 289 289 289 289 290 289 289 288 288 287 287 287 287 288 288 288 288 287 286 286 287 286 287 286 286 287 287 287 287 288 288 288 288 288
291 291 290 290 290 290 289 289 289 289 289 289 289 289 290 289 289 288 287 286 286 286 286 287 287 286 286 286 286 286 287 286 287 287 287 287 287 287 287 287 287 286 286
290 290 290 290 290 289 289 289 289 290 289 289 289 288 288 289 288 287 286 285 284 285 286 286 286 286 286 286 286 286 286 286 287 287 287 287 287 287 286 286 286 285 285
289 289 289 289 289 289 289 289 289 289 289 288 287 286 285 287 287 285 282 284 284 285 285 286 286 286 286 286 286 286 287 287 287 287 287 287 286 286 286 285 285 284 283
289 289 289 289 289 289 289 289 289 289 288 287 286 284 285 284 285 284 283 283 284 285 286 286 286 286 286 286 286 287 287 287 287 287 287 286 286 285 284 284 283 282 281
289 288 288 288 288 288 288 288 289 289 287 286 285 284 283 284 283 284 283 283 284 285 286 286 286 286 287 287 287 287 287 287 287 286 286 285 284 283 282 281 281 280 279
288 288 288 288 288 287 287 287 286 286 287 288 285 283 282 281 281 281 281 283 284 286 286 286 286 286 286 286 287 287 287 286 286 285 284 283 282 281 280 280 279 278 278
287 287 287 287 286 286 286 285 285 284 284 285 284 283 281 281 281 281 281 282 284 285 286 286 286 286 286 286 286 286 286 286 284 283 282 281 280 279 279 278 278 277 277
287 287 287 286 286 285 284 284 283 283 282 282 281 281 281 280 279 280 281 281 283 285 286 286 286 286 286 286 286 286 285 284 282 281 280 279 279 278 278 277 277 276 276
286 286 286 285 285 284 282 282 281 281 280 280 280 279 279 275 278 279 280 281 281 282 284 286 286 286 285 286 285 285 283 281 280 279 279 278 277 277 277 276 276 275 275
285 285 284 284 283 281 280 280 279 279 279 279 279 278 278 278 278 279 279 279 280 281 282 283 285 285 285 285 284 282 280 280 279 278 278 277 276 276 276 275 275 274 274
284 283 283 281 280 279 278 278 278 277 277 277 277 276 276 276 277 277 278 279 280 280 282 282 283 283 284 283 282 280 279 278 277 277 276 276 276 275 275 274 274 274 273
282 281 280 279 278 277 277 277 276 276 276 275 275 275 276 276 277 278 278 279 279 279 280 281 281 281 281 280 279 278 278 277 276 276 275 275 275 274 274 274 273 273 272
280 279 278 277 276 276 276 275 275 275 274 274 274 274 275 275 276 277 277 278 278 278 278 279 279 280 279 277 277 276 277 277 276 275 274 274 274 273 273 273 272 272 271
278 277 276 275 275 274 274 275 275 274 274 274 274 273 273 274 274 275 276 276 276 276 276 277 278 277 276 275 275 278 278 276 275 274 274 273 273 272 272 272 272 271 271
Wind_Speed
18 16 15 13 11 10 7 6 5 6 7 9 11 13 16 18 20 22 24 26 27 29 30 32 33 33 34 35 36 36 34 32 39 58 50 47 44 45 45 45 39 41 41
16 14 13 11 9 7 6 4 4 6 10 12 15 17 19 21 23 26 28 29 32 34 36 37 38 38 39 38 38 40 37 36 37 45 54 50 45 47 44 42 42 41 41
15 12 11 9 6 4 4 5 8 10 13 16 19 22 23 25 27 29 32 34 35 37 38 39 40 40 41 41 41 42 41 40 40 40 50 46 45 42 45 45 46 43 42
13 11 8 5 4 4 6 9 13 16 18 20 21 22 24 25 28 30 33 35 37 39 40 41 42 42 43 44 44 44 44 43 42 40 45 47 45 45 44 45 45 41 39
11 8 5 3 4 7 10 13 16 17 19 21 22 23 25 27 30 34 37 40 42 45 44 44 44 44 44 44 45 47 44 43 42 40 43 44 41 40 43 45 44 41 38
9 5 3 2 5 9 13 15 17 19 21 22 25 28 30 31 34 36 40 44 46 48 50 50 49 48 47 46 45 44 41 39 42 39 41 42 47 46 45 43 40 38 31
8 4 1 5 10 14 16 18 20 22 24 26 28 31 34 35 38 40 42 45 48 49 49 50 51 48 47 46 46 43 41 38 35 36 38 41 42 41 38 35 31 25 19
6 1 4 10 14 16 17 19 22 24 26 29 32 34 37 37 39 41 43 46 49 49 48 48 49 49 46 44 43 42 40 37 36 31 30 33 33 31 26 21 18 13 6
3 3 9 13 15 16 18 20 22 26 29 32 35 37 39 39 39 39 41 44 47 49 48 46 45 46 43 38 36 39 40 35 28 24 23 22 20 17 12 9 7 6 12
3 7 11 14 15 16 18 22 26 29 33 37 39 40 40 42 41 41 42 45 46 47 46 45 43 39 38 35 33 30 29 30 24 19 13 10 7 3 2 5 6 7 16
6 9 11 13 14 17 21 25 30 33 36 39 41 42 43 42 43 42 44 44 42 43 42 44 39 37 34 28 21 24 23 18 12 7 2 3 6 10 11 9 11 8 6
8 9 9 11 15 20 24 28 32 35 38 41 44 46 46 46 44 43 44 42 36 34 38 38 36 33 26 21 18 13 10 5 0 1 4 10 12 11 12 11 11 11 10
8 8 9 12 17 22 27 30 33 36 39 42 44 46 48 48 47 45 44 41 31 30 34 31 29 23 17 13 11 9 5 1 3 4 9 10 10 10 10 9 9 9 8
8 8 12 16 20 24 27 30 33 36 38 40 42 44 47 50 49 47 42 37 34 33 34 29 21 15 13 12 11 4 1 2 4 4 4 5 5 6 5 6 5 6 5
9 11 15 19 23 26 27 30 32 35 37 40 41 43 45 50 48 42 36 37 33 30 31 25 21 12 14 13 8 5 4 3 2 1 1 1 2 2 1 3 2 3 3
11 14 18 22 24 27 29 31 31 35 38 39 39 39 43 41 44 40 37 32 31 28 27 24 19 14 16 12 9 8 7 5 3 4 3 2 1 1 1 1 1 1 1
14 18 20 23 25 28 30 33 39 39 39 41 42 42 41 41 35 35 33 30 27 21 25 24 19 17 18 14 14 13 11 9 7 5 4 3 3 2 2 2 2 1 1
18 20 22 24 26 28 30 32 35 39 45 48 45 43 40 36 33 30 28 29 27 21 24 23 20 20 20 19 16 13 12 10 9 7 5 4 5 5 5 4 4 3 2
20 21 23 25 25 27 29 31 34 37 40 44 46 43 38 34 30 25 20 23 23 25 24 21 22 21 21 19 18 15 13 11 9 8 7 6 7 7 7 6 5 4 3
21 23 24 24 25 26 28 31 33 35 38 40 41 39 37 34 32 26 19 22 22 22 23 23 22 22 21 20 18 15 13 12 10 9 8 9 8 8 8 7 6 5 4
21 23 23 23 24 25 26 29 31 34 35 37 37 34 29 28 27 23 23 24 26 24 25 26 23 20 21 19 17 14 12 11 10 10 10 10 9 8 8 7 7 6 6
21 22 22 22 23 23 24 26 28 31 32 34 34 32 25 21 21 21 25 27 23 22 22 23 23 19 16 16 13 13 12 11 11 10 10 10 9 9 8 8 7 7 7
20 20 20 20 21 21 22 24 26 28 30 30 31 31 29 26 26 27 26 23 21 19 20 21 21 19 17 14 13 12 10 10 10 11 11 10 9 9 8 8 8 8 8
19 19 18 18 19 20 21 22 24 25 26 28 27 28 27 27 26 23 21 20 18 18 18 19 18 18 15 13 12 9 10 10 10 10 10 10 9 9 9 9 9 9 8
18 17 18 18 19 19 19 20 22 23 23 24 25 25 24 23 21 18 16 14 14 15 15 15 16 16 12 12 11 9 10 11 11 11 11 10 9 9 9 10 9 9 8
16 16 17 17 18 19 20 21 20 21 22 21 21 22 22 20 19 17 13 11 9 9 11 13 14 11 11 11 11 13 12 11 13 12 11 10 10 10 10 10 10 9 9
Wind_Direction
129 126 124 120 115 107 98 79 51 25 2 346 338 333 328 326 325 323 323 322 320 318 318 316 315 315 313 311 309 305 294 287 281 293 292 298 295 297 297 296 297 299 300
129 127 125 117 109 98 83 58 18 348 340 333 331 330 328 327 325 323 323 322 321 321 321 320 319 319 317 315 311 306 299 292 286 287 297 296 293 298 298 298 300 298 300
136 133 127 121 110 79 34 5 347 340 335 332 329 328 329 328 326 324 322 321 320 319 319 317 317 315 313 312 310 306 304 298 295 285 290 295 296 298 298 299 302 302 301
141 135 127 110 77 27 360 350 342 335 330 327 326 327 326 326 324 322 320 319 318 317 317 316 315 314 313 312 310 308 306 302 299 294 290 295 294 298 297 298 302 302 301
150 142 129 88 27 360 344 333 327 326 327 327 326 325 326 326 326 324 322 319 318 317 316 316 315 314 313 311 309 309 306 303 300 299 296 297 296 296 295 298 297 298 299
153 146 110 35 341 328 325 324 326 328 329 329 330 330 331 331 328 324 322 319 319 319 318 318 318 317 316 312 310 307 304 301 299 298 298 296 299 298 298 296 296 295 289
160 151 22 330 328 329 329 331 331 333 333 333 333 331 329 329 326 323 320 317 315 316 316 317 316 317 316 313 310 307 304 300 295 297 294 293 294 295 296 293 293 289 278
166 205 321 325 326 328 330 333 333 334 334 333 331 329 327 327 325 323 321 318 315 315 315 316 317 317 316 314 313 309 307 307 307 306 297 295 295 295 295 288 282 270 245
190 303 321 324 328 331 333 334 335 332 331 330 328 325 323 322 322 322 322 321 319 318 316 317 317 316 317 317 313 309 308 312 316 310 303 298 297 296 289 277 258 218 150
250 309 321 328 330 332 334 333 331 329 327 324 322 321 320 319 320 320 321 321 322 320 318 316 316 317 315 316 312 313 314 312 315 317 314 309 300 295 95 105 109 145 139
293 316 324 325 327 327 330 329 327 324 322 321 320 321 322 322 319 317 316 318 320 320 319 319 318 316 318 320 317 306 305 312 316 312 322 57 90 98 97 99 114 108 131
295 309 316 318 321 323 324 324 323 323 323 323 322 322 321 319 317 316 316 317 318 315 318 318 316 319 320 321 321 327 323 333 266 185 103 101 103 95 91 88 81 75 85
291 295 299 312 318 319 321 322 323 325 324 323 322 321 322 320 320 318 317 316 311 310 316 317 314 315 316 324 324 334 344 229 224 141 119 106 96 86 77 74 72 71 80
266 281 300 310 316 320 321 322 324 326 324 321 320 321 320 318 317 319 317 314 314 310 313 314 315 305 310 307 310 313 285 210 172 138 110 95 90 85 74 67 65 74 73
269 291 305 314 318 319 322 323 324 323 321 321 321 318 317 317 319 316 310 307 305 301 304 300 299 294 293 292 282 240 205 188 189 116 51 86 107 91 65 65 61 56 84
283 301 310 315 315 319 322 323 322 323 324 322 319 319 318 316 316 311 305 299 297 294 293 283 282 272 271 266 240 225 225 240 263 298 276 228 229 276 310 336 37 31 41
293 301 307 310 313 317 320 323 324 326 325 323 324 323 323 321 316 307 303 299 291 280 279 270 266 260 261 264 243 241 247 259 272 267 262 258 260 272 292 309 320 343 5
293 301 305 308 312 317 320 321 321 323 325 327 326 326 329 325 318 308 303 302 290 272 270 262 259 257 259 257 248 245 253 265 266 264 261 265 272 283 293 296 300 296 269
290 297 301 306 312 316 319 320 323 324 324 324 323 327 331 325 319 310 306 302 288 279 272 265 260 258 258 253 246 249 256 257 255 254 260 270 279 283 287 286 283 270 257
289 294 300 305 309 315 320 322 324 324 323 323 324 329 329 326 328 326 311 314 309 296 274 270 263 262 252 249 248 244 246 248 252 259 267 273 274 275 280 276 272 269 262
289 293 298 304 309 317 322 324 324 324 324 323 323 327 331 319 323 325 321 315 308 296 281 270 264 262 247 247 238 238 240 248 258 266 272 275 272 273 273 270 263 259 257
290 295 300 306 313 319 323 324 324 323 324 322 323 323 325 316 316 311 301 302 297 292 289 270 258 252 242 238 234 236 241 252 263 269 271 265 263 271 267 261 258 257 257
285 292 301 309 316 320 322 323 324 324 324 323 320 319 319 311 302 300 299 297 295 286 279 271 253 243 232 228 229 238 250 258 267 271 264 260 267 264 257 254 254 253 250
288 296 304 310 314 316 319 323 325 326 327 323 320 317 313 309 305 301 300 297 291 281 271 262 245 231 223 223 232 238 262 266 266 263 263 264 259 253 249 250 248 247 248
293 299 304 307 308 311 316 318 322 326 327 326 328 327 322 316 310 307 306 299 289 278 263 246 229 221 215 227 236 240 256 269 271 264 261 256 251 247 244 243 244 247 249
289 295 300 301 305 309 309 312 317 321 323 327 330 330 329 330 326 324 322 309 287 261 239 226 218 211 230 239 243 258 264 266 267 267 260 251 247 246 245 245 247 248 251